Location: Fond Mahaut
(18.0707°N, 63.0465°W)
Time: 10:47:12
(UTC+00:00)

Atlas Centaur 2 - Pass Details

Date: 08 December 2019
Orbit: 459 x 1310 km, 30.4° (Epoch: 24 January)

Event Time Altitude Azimuth Distance (km) Brightness Sun altitude
Rises 23:09:23 0° 297° (WNW) 4,065 6.4 -21.5°
Reaches altitude 10° 23:12:09 10° 299° (WNW) 3,181 5.7 -22.1°
Maximum altitude 23:20:23 75° 25° (NNE) 1,344 3.0 -24.0°
Enters shadow 23:23:52 40° 100° (E) 1,830 3.4 -24.8°
